This is the latest recevied weather packets stored in our database for station/object W8LMG. If no packets are shown the sender has not sent any weather packets the latest 10 day(s).
| Time | Temp. | Humidity | Pressure | Rain* | Wind** | Luminosity | Snow |
|---|---|---|---|---|---|---|---|
| 1777310806 | 19.44° C | 38% | 1022.2 hPa | 0 mm | - | 444 W/m² | - |
| 1777310503 | 20° C | 37% | 1022.1 hPa | 0 mm | - | 386 W/m² | - |
| 1777310200 | 19.44° C | 37% | 1022.2 hPa | 0 mm | - | 437 W/m² | - |
| 1777309897 | 18.89° C | 37% | 1022.3 hPa | 0 mm | - | 298 W/m² | - |
| 1777309595 | 18.89° C | 37% | 1022.3 hPa | 0 mm | - | 264 W/m² | - |
| 1777309292 | 18.89° C | 45% | 1022.3 hPa | 0 mm | - | 305 W/m² | - |
| 1777308990 | 18.89° C | 40% | 1022.5 hPa | 0 mm | - | 385 W/m² | - |
| 1777308686 | 18.33° C | 39% | 1022.5 hPa | 0 mm | - | 297 W/m² | - |
| 1777308381 | 18.33° C | 37% | 1022.6 hPa | 0 mm | - | 422 W/m² | - |
| 1777308077 | 17.78° C | 45% | 1022.4 hPa | 0 mm | - | 283 W/m² | - |
| 1777307775 | 17.78° C | 41% | 1022.3 hPa | 0 mm | - | 292 W/m² | - |
| 1777307472 | 17.78° C | 39% | 1022.5 hPa | 0 mm | - | 161 W/m² | - |
| 1777307169 | 17.22° C | 45% | 1022.5 hPa | 0 mm | - | 373 W/m² | - |
| 1777306866 | 17.22° C | 43% | 1022.6 hPa | 0 mm | - | 182 W/m² | - |
| 1777306563 | 17.22° C | 39% | 1022.8 hPa | 0 mm | - | 109 W/m² | - |
| 1777306259 | 17.22° C | 43% | 1022.6 hPa | 0 mm | - | 63 W/m² | - |
| 1777305954 | 16.67° C | 43% | 1022.7 hPa | 0 mm | - | 150 W/m² | - |
| 1777305651 | 16.67° C | 41% | 1022.5 hPa | 0 mm | - | 113 W/m² | - |
| 1777305347 | 16.67° C | 43% | 1022.9 hPa | 0 mm | - | 129 W/m² | - |
| 1777305047 | 16.67° C | 42% | 1022.9 hPa | 0 mm | - | 212 W/m² | - |
| 1777304747 | 16.67° C | 48% | 1022.8 hPa | 0 mm | - | 382 W/m² | - |
| 1777304444 | 16.11° C | 46% | 1022.9 hPa | 0 mm | - | 330 W/m² | - |
| 1777304142 | 16.11° C | 43% | 1023 hPa | 0 mm | - | 365 W/m² | - |
| 1777303838 | 16.11° C | 45% | 1022.8 hPa | 0 mm | - | 624 W/m² | - |
| 1777303536 | 16.11° C | 46% | 1023.1 hPa | 0 mm | - | 615 W/m² | - |
* Rain latest hour (hover to see other rain measurements)
** Current wind speed in m/s (hover to see current wind gust speed)